Vorticity
2 3 3 3 3 4 4 4 4 5 5 6 7 9 10 11 11 11 11 11 11 10 9 8 6 5 2 1 0 0 1 2 5 8 11 9 8 8 8 9 8 8 8 8 7 6 5 4 3 3 3 3 3 4 5 5 4 3 1 1 2 3 4 5 5 4 3 3 2 2 1 0 0 0 1 1 1 2 3 5 5 4 2 2 2 2 2 2 2 2 1 2 2 2 2 2 2 2 3 4 4 5 6
2 2 2 3 3 3 3 4 4 4 4 4 5 6 7 8 9 10 11 11 11 11 10 10 9 8 6 4 2 0 -0 -0 1 4 8 7 7 8 9 10 9 9 9 10 9 7 5 5 4 3 3 3 3 4 5 5 5 4 2 1 1 2 3 4 5 5 4 3 3 2 2 1 0 -0 -0 0 1 2 2 4 7 8 3 2 2 2 2 3 2 2 2 2 2 2 2 2 2 2 2 3 3 4 5
3 3 3 3 3 3 3 3 3 4 4 4 4 4 5 5 7 8 9 10 11 11 11 10 10 9 8 7 5 3 1 -0 -0 2 5 6 5 4 5 8 10 10 8 10 11 11 9 6 5 4 4 4 4 4 4 5 6 5 4 2 2 2 2 3 4 5 5 4 3 2 2 1 1 1 1 2 2 2 2 3 7 10 7 4 2 2 2 2 2 2 2 2 2 2 2 2 2 2 2 2 2 3 4
4 4 4 3 3 3 3 3 3 3 3 4 4 4 4 4 5 5 6 8 9 10 11 11 11 10 9 8 7 6 4 2 0 0 2 6 7 6 3 4 6 8 9 8 9 11 13 12 8 5 4 4 4 4 4 5 6 6 5 4 3 3 2 2 3 4 5 5 4 3 2 2 1 1 1 3 4 4 3 2 5 9 11 6 3 2 2 2 2 2 2 2 2 2 2 2 2 2 2 2 2 3 3
5 5 5 4 4 4 4 3 3 3 3 3 3 4 4 4 4 4 4 5 6 8 9 11 11 11 10 9 8 7 6 5 3 2 0 2 5 8 8 5 4 5 6 8 9 9 11 13 12 9 6 5 5 5 4 5 5 6 7 6 5 4 3 2 2 3 5 5 5 4 3 2 2 1 0 2 3 4 2 1 2 6 12 10 6 3 2 3 2 2 2 2 2 2 2 2 2 2 2 2 2 2 3
5 5 5 5 5 5 5 5 4 4 4 3 3 3 4 4 4 4 4 4 4 5 6 8 10 11 11 11 10 8 7 7 6 4 2 0 0 3 9 8 6 3 2 5 7 8 9 10 12 12 9 7 6 5 5 4 5 6 7 7 7 6 5 3 3 3 4 5 5 4 3 3 2 1 -0 -0 2 3 1 0 1 4 10 12 9 5 2 2 3 3 2 2 2 3 3 2 2 2 2 2 2 2 3
5 5 5 5 5 6 6 5 5 5 5 4 4 4 4 4 4 4 4 4 4 4 4 5 7 8 10 11 11 10 9 8 7 6 5 3 0 -1 2 7 8 7 4 3 4 6 8 8 9 11 11 10 8 6 5 4 4 4 6 7 7 7 6 5 3 3 4 5 6 5 4 3 2 1 0 -1 -1 0 2 0 1 3 7 11 11 8 2 2 2 3 2 2 2 3 3 3 3 2 2 2 2 2 2
5 5 5 5 5 6 6 6 6 6 6 5 5 5 4 4 4 4 4 4 4 4 4 4 5 6 7 9 10 11 11 10 8 7 6 5 3 1 -2 2 5 8 9 6 5 5 7 9 9 8 9 10 10 7 5 4 3 3 4 5 7 7 7 6 4 4 4 5 6 6 5 4 3 2 1 -1 -2 -2 2 1 1 2 5 8 10 10 4 2 2 2 3 3 3 3 3 3 3 3 2 2 1 2 2
6 6 6 6 6 6 6 6 6 6 6 6 6 6 6 5 5 4 4 4 4 4 4 4 4 5 5 6 7 9 11 11 10 9 7 6 5 3 1 -1 1 3 6 7 6 5 6 9 9 8 6 8 10 10 7 5 3 2 2 3 5 6 7 6 5 4 4 5 6 6 5 4 3 3 2 1 -0 -1 1 3 4 4 4 6 9 10 8 3 2 2 3 3 3 3 3 3 3 3 2 2 2 1 2
6 6 6 6 6 6 6 6 6 6 6 6 6 6 6 6 6 5 5 5 4 4 4 4 4 4 4 4 5 6 8 10 11 11 10 8 6 5 4 1 0 -0 1 4 6 6 6 8 10 10 8 7 9 11 11 8 5 2 1 1 3 5 6 6 6 5 4 5 7 8 8 4 3 3 3 2 1 1 1 3 5 6 5 5 6 9 11 6 2 1 2 3 3 3 3 3 3 2 2 2 2 1 2
7 7 7 7 7 7 7 7 7 7 7 7 7 7 7 7 7 6 6 6 5 5 5 5 4 4 4 4 4 4 5 7 8 10 11 10 8 7 6 4 2 0 -1 1 3 5 7 8 9 10 10 8 8 10 13 12 8 4 1 0 1 3 5 5 5 5 4 5 7 9 11 7 4 3 3 3 2 2 2 3 5 6 6 5 5 7 12 9 4 1 1 2 3 3 3 2 2 2 2 2 1 1 1
7 7 7 8 8 8 8 8 8 7 7 7 7 7 7 7 7 7 7 7 6 6 5 5 5 4 4 4 4 4 4 5 6 7 9 10 10 9 8 6 4 2 0 -1 -0 1 4 7 8 9 9 9 8 8 11 14 13 9 4 1 1 2 3 4 4 4 3 4 5 7 9 9 6 3 3 3 3 4 4 4 5 5 5 6 6 6 10 11 7 3 1 1 2 3 3 2 2 2 2 1 1 1 1
7 7 7 8 8 8 8 8 8 8 8 8 8 8 8 8 8 8 8 8 8 7 6 6 5 5 4 4 4 4 4 4 4 5 6 8 9 10 10 9 7 5 3 1 -1 -1 0 4 6 8 8 9 9 8 8 12 14 13 10 5 2 1 2 4 4 3 2 2 2 4 8 9 7 4 3 2 3 5 6 5 4 4 4 6 6 7 7 11 9 5 1 1 1 2 3 2 2 2 2 1 1 1 1
7 7 7 7 8 8 8 9 9 9 9 9 9 9 9 9 9 9 9 9 9 8 7 6 6 5 5 5 4 4 4 4 4 4 4 5 7 9 10 10 9 8 6 3 1 -1 -2 0 3 5 7 8 8 8 7 9 12 14 14 10 6 3 2 3 3 3 2 1 1 3 7 9 8 5 3 2 3 4 6 5 4 3 3 4 6 7 7 10 10 8 3 1 1 1 2 2 2 2 2 2 1 1 1
7 7 7 7 7 8 8 8 9 9 9 9 9 10 10 10 10 10 10 10 9 9 8 8 7 6 6 5 5 5 4 4 4 4 4 4 5 6 8 9 10 10 9 7 4 2 -1 -2 -1 2 5 7 8 8 7 8 10 13 15 14 11 7 4 4 3 3 1 1 2 3 5 7 8 6 4 2 2 3 4 4 3 2 2 3 4 6 7 8 10 9 6 3 1 0 1 2 2 2 2 2 2 2 1
7 7 7 7 7 7 8 8 8 9 9 9 9 10 11 11 11 11 11 10 10 10 9 9 8 8 7 6 6 5 5 4 4 4 4 4 4 4 5 7 8 9 10 9 7 5 3 -0 -2 -2 1 4 7 8 7 7 8 10 12 15 14 11 6 5 4 3 2 2 2 3 4 7 7 6 4 3 2 2 2 2 2 1 1 1 2 4 6 7 8 9 9 6 3 1 1 1 2 2 2 2 2 2 2
5 6 7 7 7 7 7 8 8 8 8 9 9 10 11 11 11 11 11 11 11 10 10 10 9 9 8 7 6 6 5 5 4 4 4 4 4 4 4 5 6 7 9 10 9 8 7 4 1 -2 -2 -0 3 6 7 7 8 9 9 13 14 14 10 7 5 4 3 2 2 3 5 6 7 8 6 3 2 1 1 1 1 0 -0 -0 0 1 4 5 6 7 8 8 6 3 1 1 1 2 2 3 3 3 3
4 5 5 6 7 7 7 7 7 7 8 8 9 9 10 11 11 11 11 11 11 11 11 11 11 10 9 8 8 7 6 6 5 5 4 4 4 4 4 4 4 5 7 8 9 10 9 8 5 2 -1 -2 -1 2 4 6 8 9 7 10 13 15 13 9 7 5 4 3 3 3 6 7 9 10 8 5 3 2 2 2 2 2 1 1 -0 -1 -0 2 4 6 7 7 7 6 4 2 1 1 2 3 3 3 3
4 4 4 5 5 6 6 6 7 7 7 8 8 9 10 10 10 10 11 11 11 11 11 11 11 11 11 10 9 8 7 7 6 5 5 4 4 4 4 4 4 4 5 6 7 9 10 10 9 7 4 0 -1 -2 0 3 6 8 8 10 12 14 14 11 8 6 5 4 4 4 6 8 9 10 9 6 5 5 6 6 6 6 6 4 2 -0 -2 -1 1 4 5 6 6 7 6 4 3 2 2 2 3 3 4
7 6 5 4 4 4 5 5 6 6 7 7 8 9 9 10 10 10 10 10 10 11 11 11 12 12 12 11 11 10 8 8 7 6 5 5 4 4 4 4 4 4 4 4 5 6 8 9 10 10 9 5 2 -1 -2 0 3 6 8 10 11 13 14 12 10 8 7 5 4 4 5 7 8 9 10 8 6 5 7 9 9 9 10 8 6 3 -0 -2 -1 2 4 5 6 7 6 5 4 3 2 2 2 3 3
9 8 7 6 5 5 4 5 5 6 6 7 7 8 9 9 9 9 9 9 10 10 11 11 11 12 12 12 12 11 10 9 8 7 6 6 5 5 4 4 4 4 4 4 4 5 6 7 9 10 10 9 7 4 -0 -1 0 2 5 8 9 11 12 12 11 9 9 7 5 3 4 6 7 8 10 9 6 2 1 6 9 11 12 12 10 7 4 0 -1 0 2 5 7 9 8 6 5 3 3 2 2 2 3
10 10 9 9 8 7 6 5 5 5 6 6 7 8 9 9 9 9 9 9 9 10 10 11 11 12 12 12 12 12 11 10 9 8 7 6 6 5 5 4 4 4 4 4 4 4 4 5 6 8 9 10 10 8 5 1 -0 -0 2 5 7 9 10 10 10 10 9 9 8 5 4 5 7 8 8 10 8 3 -3 -1 2 7 10 12 12 11 7 4 2 1 3 4 7 10 12 9 6 4 3 3 3 2 2
10 10 10 10 9 9 8 7 6 5 5 6 6 7 8 9 9 8 9 9 9 9 10 10 11 11 11 11 12 12 11 11 11 9 8 7 7 6 5 5 5 4 4 4 4 4 4 4 5 6 7 9 10 10 9 6 2 -0 -1 2 5 7 8 8 9 9 7 9 9 7 4 5 6 7 7 10 10 8 2 -3 -4 -1 3 6 9 10 9 6 4 3 4 5 6 8 12 12 10 7 4 3 3 3 2
8 9 9 10 10 10 10 9 8 7 6 6 6 6 7 8 8 8 8 9 9 9 9 10 10 11 11 11 11 11 11 12 12 11 10 8 8 7 6 6 5 5 4 4 4 4 4 4 4 4 5 6 8 10 11 9 7 3 -0 -0 2 5 7 7 8 8 6 7 8 8 6 6 7 7 8 9 9 9 10 3 -2 -5 -5 -2 1 4 6 5 4 4 5 7 6 6 9 12 13 12 8 5 3 3 3
5 6 7 8 9 10 10 10 9 9 8 7 6 6 6 7 8 8 8 9 9 9 9 9 9 9 10 11 11 11 11 11 12 12 12 10 9 8 7 6 6 5 5 4 4 4 4 4 4 4 4 5 6 8 10 11 10 7 3 0 0 1 4 6 7 8 7 6 5 5 7 7 8 8 8 9 9 9 11 8 4 -0 -6 -7 -6 -3 0 2 3 3 4 5 6 6 8 12 14 15 14 10 6 3 2
2 3 4 6 8 9 10 11 11 10 10 9 8 7 7 7 7 8 8 9 9 9 10 9 9 9 10 10 11 12 11 11 11 12 12 12 11 9 8 7 7 6 6 5 5 4 4 4 4 4 4 4 4 5 7 9 10 10 8 4 1 -1 0 3 6 8 9 7 5 3 5 6 8 8 8 9 9 8 9 9 9 6 1 -3 -6 -7 -5 -3 0 3 3 3 3 4 7 11 15 17 17 15 11 7 3
2 2 3 5 6 7 9 11 12 12 12 12 11 11 9 8 8 8 8 9 10 10 10 10 10 10 10 10 10 11 11 11 11 11 12 12 12 12 10 8 7 7 6 6 5 5 5 5 5 5 4 4 4 4 5 7 9 10 11 8 4 1 -1 -0 3 7 10 9 6 3 1 4 6 8 9 9 9 8 7 8 8 8 7 4 0 -3 -5 -4 -2 1 4 2 1 0 4 8 12 14 15 16 15 12 7
8 7 7 7 7 7 9 10 12 13 14 14 14 14 13 11 10 9 8 9 10 10 11 11 11 11 10 11 10 10 11 11 11 11 11 12 12 13 12 10 8 7 7 6 6 5 5 5 5 5 5 5 4 4 4 5 7 9 11 11 8 5 1 -1 -1 2 8 9 7 4 0 2 4 7 9 9 9 9 8 7 7 7 7 5 4 3 2 0 1 2 4 3 2 1 1 4 6 7 8 10 12 13 12
15 15 14 13 12 11 11 11 12 13 14 14 15 15 15 14 12 11 11 10 10 11 11 12 12 12 12 11 11 11 11 11 11 11 11 11 12 12 13 12 10 8 7 7 6 6 6 5 5 5 5 5 5 5 4 5 5 7 9 10 11 10 6 2 -1 -1 2 8 9 7 3 0 1 4 7 9 10 9 9 8 7 6 5 4 3 3 2 4 5 5 5 4 3 2 2 2 3 3 3 3 5 8 11
21 20 19 18 17 16 15 14 14 14 15 15 14 14 15 14 14 13 12 12 12 12 12 12 13 13 13 13 12 12 11 11 11 11 11 11 11 11 13 13 12 10 8 7 7 6 6 6 5 5 5 5 5 5 5 5 5 5 7 8 10 11 11 7 3 -1 -3 3 8 11 8 2 0 1 4 7 9 10 9 9 8 7 6 8 9 8 5 4 5 6 7 6 4 2 1 0 1 3 4 1 -1 -0 4
25 24 23 22 21 20 19 18 18 17 17 17 16 16 15 14 14 14 13 13 13 12 12 12 13 13 13 13 13 13 12 12 11 11 11 10 10 10 11 12 12 12 9 8 7 7 7 6 6 6 5 6 5 5 6 5 5 5 5 6 8 10 13 11 8 4 -1 -2 3 10 15 9 3 -0 1 4 8 10 10 10 9 9 8 19 24 24 19 13 9 7 7 8 7 4 -1 -1 1 5 7 6 1 -2 -1
28 27 27 26 25 24 23 22 21 21 20 20 19 18 18 17 16 15 15 15 13 12 12 12 12 12 12 13 13 13 13 13 12 11 11 10 10 10 10 11 12 12 11 9 8 7 7 6 6 6 6 6 5 5 5 6 5 4 4 5 6 8 11 12 11 8 4 -1 -2 3 12 14 9 3 -0 1 5 8 10 11 11 9 5 24 42 48 28 31 24 15 10 11 13 12 7 5 6 8 10 12 7 2 1
31 30 29 28 27 26 25 25 24 23 23 23 22 21 20 20 19 17 17 16 15 14 13 12 12 12 12 13 13 13 14 13 12 12 12 11 10 10 10 10 11 11 12 11 9 7 7 7 6 6 6 6 6 5 4 5 5 5 4 4 4 5 6 11 12 11 9 4 1 -0 5 11 11 7 1 -0 2 6 10 11 12 11 3 -6 12 34 34 43 39 29 19 15 14 15 15 12 11 12 14 16 13 8 1
32 31 31 30 30 28 27 27 26 25 25 24 23 23 22 22 21 21 20 18 17 16 15 14 13 13 13 13 13 13 14 14 13 13 12 12 11 11 10 10 10 10 12 12 10 8 7 7 6 6 6 6 6 6 5 4 4 5 5 5 4 4 3 8 11 13 11 9 6 3 2 7 11 11 5 1 0 2 7 10 13 14 12 -23 -29 -13 18 29 39 42 30 22 17 15 14 13 12 13 15 19 19 16 5
29 29 29 29 29 28 28 27 27 26 25 25 24 24 24 23 23 23 22 21 20 19 18 16 15 15 14 14 14 14 14 14 14 14 13 13 12 12 11 10 10 10 11 11 11 9 7 7 6 6 6 6 6 7 7 2 2 4 5 6 6 5 3 4 7 11 12 12 9 6 3 4 8 11 11 5 1 0 3 7 10 14 19 -2 -27 -37 -10 19 40 49 42 31 24 19 15 13 13 14 16 19 21 20 13
26 26 26 26 26 26 26 26 26 25 24 24 24 24 24 24 24 24 24 23 22 21 20 19 17 16 15 15 14 14 14 14 14 14 14 13 13 12 11 11 11 11 11 11 11 10 9 7 6 6 6 6 5 5 8 4 3 3 4 6 6 6 5 3 4 7 13 16 14 10 4 2 5 9 13 9 5 1 -0 3 6 11 17 15 -7 -30 -34 -0 24 36 36 30 26 22 19 16 14 14 15 18 20 21 21
23 23 24 24 24 25 25 25 24 24 23 23 22 22 22 22 23 24 24 24 24 23 22 21 20 18 16 15 15 14 14 14 14 14 15 15 14 13 12 12 12 12 11 11 11 11 10 8 7 6 5 5 4 5 11 14 10 4 2 4 6 6 6 5 3 3 7 14 17 15 8 3 3 6 12 13 9 4 0 2 4 6 11 17 6 -17 -48 -40 -23 -3 11 13 15 16 17 16 14 12 11 14 17 20 23
21 21 22 22 23 23 24 24 24 24 23 23 22 21 20 20 20 21 22 22 23 23 23 22 21 20 20 19 17 16 15 15 14 14 15 15 15 14 13 13 12 12 12 12 12 11 10 9 8 6 6 5 4 3 2 10 11 8 2 3 4 6 6 5 4 3 2 5 10 15 13 7 3 4 10 15 13 9 2 1 2 4 6 12 11 -1 -29 -49 -51 -41 -24 -18 -10 -2 3 6 7 7 6 7 10 14 18
19 20 20 21 21 22 22 23 23 24 24 23 23 22 20 19 19 18 18 20 20 21 22 22 21 22 22 21 20 19 17 16 16 15 15 16 15 15 15 14 13 13 12 13 13 12 10 10 8 7 6 5 5 5 2 4 9 12 8 5 4 4 4 5 4 3 2 -0 2 7 11 8 5 4 8 16 18 15 5 1 1 2 4 8 11 10 -0 -21 -36 -43 -40 -36 -29 -21 -14 -9 -5 -2 -0 1 3 5 8
18 19 19 19 20 20 21 21 22 23 23 24 24 23 22 21 19 18 17 17 18 19 20 20 21 21 21 21 21 21 20 18 17 17 17 16 16 16 16 15 14 13 13 13 13 13 11 10 9 8 7 6 5 6 5 4 6 11 16 11 7 5 5 4 4 3 2 1 1 3 6 6 4 2 3 13 20 21 13 5 1 0 3 5 8 10 11 3 -7 -16 -23 -26 -25 -23 -20 -15 -12 -9 -6 -4 -2 -1 2
18 18 18 19 19 19 20 20 21 21 22 23 24 24 24 23 21 19 17 16 16 16 17 18 19 19 19 19 20 21 21 20 19 18 17 17 17 16 16 16 15 14 14 13 13 13 13 12 10 9 8 6 6 6 6 4 2 5 15 16 13 10 8 6 4 3 2 3 3 4 6 7 4 0 -3 3 13 21 22 13 5 0 1 3 5 8 10 10 7 4 0 -4 -7 -8 -9 -8 -8 -9 -9 -7 -6 -4 -2
18 18 18 18 19 19 19 19 19 20 21 22 23 24 25 25 24 22 20 18 16 15 15 16 17 18 18 17 18 19 20 20 20 20 19 18 18 17 17 16 16 15 15 14 14 14 14 13 12 10 9 7 6 6 6 6 5 4 6 14 14 12 9 9 6 4 3 3 3 4 5 8 8 3 -4 -5 1 11 22 19 12 4 -1 1 3 5 8 9 9 9 8 7 5 4 3 2 0 -2 -5 -6 -6 -6 -4
18 18 18 18 18 18 18 19 19 19 19 20 21 23 24 25 25 25 24 21 19 16 14 14 14 15 16 16 16 16 18 19 20 20 20 19 19 18 18 17 16 16 15 15 14 14 14 14 13 12 10 8 7 6 6 6 6 4 2 5 7 8 7 10 9 6 4 5 5 4 4 6 8 8 2 -4 -6 -2 9 17 17 12 3 -0 0 3 5 7 8 8 8 9 9 8 7 7 6 3 1 -1 -3 -4 -4
18 17 17 17 17 18 18 18 18 18 18 19 19 20 22 24 25 26 27 25 23 20 17 15 13 13 14 15 15 15 15 17 18 19 20 20 20 19 18 18 17 16 16 15 15 15 14 14 14 13 11 9 8 6 6 6 6 4 1 2 4 6 8 9 9 7 5 5 5 4 3 3 6 8 8 3 -2 -5 -4 5 13 16 12 4 0 -0 2 5 6 7 7 8 9 8 7 7 7 6 5 3 2 1 -1
17 16 16 16 16 17 17 17 17 17 17 17 18 18 20 22 23 25 27 27 26 24 21 18 15 13 12 13 13 14 14 15 16 18 19 20 20 20 20 19 18 17 16 16 16 16 15 15 14 14 13 11 9 7 6 6 6 5 2 3 6 9 9 6 6 7 7 6 5 4 3 3 4 5 7 7 4 1 -2 1 6 13 18 12 5 0 -0 2 4 6 8 8 8 9 9 7 6 5 5 5 4 3 2
15 15 15 15 15 15 15 15 16 16 16 17 17 17 18 19 21 23 26 28 28 28 26 23 19 15 13 12 12 12 13 14 15 16 17 18 19 20 21 20 19 18 16 16 16 16 16 15 15 14 14 13 11 9 7 6 6 6 4 3 6 10 11 7 6 7 9 8 6 5 4 4 3 3 5 6 6 8 12 16 16 16 20 18 12 6 0 1 3 4 6 6 8 9 10 8 7 6 5 5 4 3 3
14 14 14 14 14 14 14 14 14 14 15 15 16 16 16 17 18 20 22 25 28 29 30 28 24 20 15 13 11 11 12 12 13 14 15 16 17 19 20 21 20 19 18 16 16 16 17 16 15 15 15 14 12 10 8 7 6 6 6 2 4 9 18 15 12 9 9 8 7 6 5 4 4 4 4 5 3 4 12 28 33 31 28 25 21 15 6 2 2 4 6 5 6 8 10 9 8 6 4 4 3 2 2
14 14 14 14 14 14 14 13 13 14 14 14 15 15 15 15 16 17 18 21 24 27 30 30 29 26 21 16 13 11 10 11 12 13 14 15 16 17 18 20 21 20 19 17 15 15 16 17 16 16 15 15 14 12 10 8 7 6 7 4 2 4 13 21 20 15 11 9 8 7 6 5 4 4 4 5 1 -6 -13 3 16 25 28 29 29 25 17 7 3 3 5 5 6 8 10 10 9 6 4 3 2 2 1
16 16 16 16 16 16 16 15 15 14 14 14 14 14 14 15 15 16 16 18 20 23 26 29 31 30 27 22 17 13 10 10 10 11 13 14 15 16 16 18 19 20 21 18 16 15 15 16 17 17 16 16 15 14 12 10 8 7 7 6 2 -2 -2 11 20 22 17 11 8 7 7 6 5 4 2 5 3 -6 -25 -26 -18 -6 7 20 29 33 28 15 6 2 2 3 5 7 8 9 9 8 5 4 3 3 3
19 19 19 19 19 19 19 19 18 17 17 16 16 15 15 15 15 15 15 16 18 20 23 26 29 31 31 28 23 18 13 11 10 10 11 12 13 14 15 16 17 19 20 19 17 15 14 15 16 17 17 17 17 16 14 12 10 8 7 7 4 -1 -7 -1 9 19 26 18 11 7 7 8 8 6 2 2 4 2 -8 -22 -27 -26 -18 -5 9 20 28 21 13 6 2 2 3 5 8 10 11 11 10 6 5 4 5
21 22 22 22 22 22 22 22 22 21 21 20 19 19 18 17 16 16 15 16 16 17 19 23 25 28 30 31 29 24 19 15 11 9 9 10 11 12 13 14 15 17 18 19 18 17 15 13 14 16 17 18 17 17 16 14 12 10 8 7 6 3 -5 -10 -5 6 20 24 20 12 7 7 7 9 14 5 4 5 4 -3 -9 -15 -20 -17 -12 -3 8 16 17 13 7 3 2 2 6 10 12 12 10 8 6 5 5
22 23 23 23 24 24 24 24 24 24 24 24 23 22 22 20 19 18 17 17 17 17 17 19 22 25 27 30 31 30 25 20 15 11 9 8 9 10 12 13 14 15 16 18 19 19 17 14 12 13 16 18 18 18 18 16 14 12 10 8 7 6 2 -10 -17 -14 0 19 26 25 16 10 5 3 8 8 6 5 5 5 5 3 -1 -8 -12 -14 -10 0 10 15 14 8 4 2 2 5 8 9 9 9 8 6 5
21 22 22 22 23 23 23 24 24 25 25 25 25 25 24 24 23 21 20 19 18 17 17 17 19 21 24 27 31 33 31 26 20 15 11 9 8 8 11 12 13 13 14 16 20 21 19 18 14 10 10 16 18 19 19 18 16 15 13 10 8 7 7 -0 -10 -16 -10 6 19 28 29 23 15 8 3 7 6 3 0 3 4 3 2 1 -1 -3 -5 -4 1 7 13 11 7 3 2 4 5 7 8 7 7 6 7
18 19 19 19 20 20 21 21 22 22 23 24 25 25 26 25 25 24 23 22 21 20 19 18 18 19 22 23 27 30 34 31 27 21 15 12 9 7 7 9 11 12 13 14 18 21 21 20 17 13 10 12 16 19 19 18 18 18 15 13 10 9 8 7 1 -8 -18 -11 3 17 30 32 27 20 12 10 8 4 -3 -3 1 3 -1 1 4 7 7 4 2 3 7 9 8 5 3 4 5 6 5 4 4 5 6
15 16 16 16 16 17 17 18 18 19 20 21 22 23 24 25 25 26 25 25 24 22 21 19 18 18 19 21 23 26 31 33 31 27 21 16 12 9 7 7 9 12 13 14 16 18 20 21 20 18 14 11 13 17 18 19 19 19 17 15 13 11 9 9 7 2 -9 -14 -8 4 18 26 29 28 22 16 11 8 6 1 4 7 2 3 5 8 9 8 7 6 6 7 7 6 4 5 6 6 5 3 3 3 3
13 13 13 14 14 14 14 14 15 15 16 17 18 19 21 22 23 24 25 26 26 25 23 22 20 19 18 19 21 23 26 31 32 30 27 23 18 13 9 7 7 7 9 12 14 16 16 20 24 24 18 12 12 15 16 17 19 20 19 18 15 13 11 10 9 7 3 -8 -11 -7 3 13 21 26 26 23 17 11 8 7 8 10 9 5 3 4 7 8 8 7 7 8 8 6 5 6 7 8 8 5 3 1 2
12 12 12 12 12 12 12 13 13 13 14 14 15 16 17 18 20 21 23 25 26 26 26 24 23 21 19 19 20 21 23 27 29 30 29 29 24 18 12 9 7 6 6 8 11 14 15 18 23 26 26 14 11 13 16 16 18 19 20 19 18 15 13 12 10 9 9 0 -8 -13 -9 0 10 19 25 26 23 16 4 2 4 8 10 6 4 4 8 9 9 7 6 8 9 9 7 7 8 10 10 8 5 2 -0
12 12 12 12 12 12 12 12 12 12 12 13 13 13 14 15 16 17 19 21 23 25 27 26 25 23 22 20 20 20 22 24 26 28 30 31 29 24 17 13 10 8 8 8 9 11 13 16 20 24 27 19 16 15 12 15 18 20 19 20 19 18 16 14 11 10 10 7 -3 -12 -15 -8 -1 6 14 22 25 22 11 2 2 6 11 9 5 3 5 8 10 10 10 10 11 11 11 10 10 10 11 10 7 4 2
13 13 13 12 12 12 12 12 12 12 12 12 12 12 13 13 13 14 15 17 19 22 25 26 26 25 24 22 21 20 21 21 23 25 29 31 31 28 23 17 13 10 8 8 9 9 11 13 17 20 20 21 25 23 11 11 15 19 18 19 20 19 18 15 13 11 10 10 3 -8 -19 -14 -10 -8 -8 2 14 22 21 9 3 3 8 11 10 6 3 5 8 10 12 12 13 14 16 15 13 12 11 10 8 6 4
14 14 13 13 13 13 13 13 12 12 12 12 13 12 13 13 13 13 13 14 15 18 20 23 25 26 26 24 22 21 20 20 22 23 26 29 31 31 27 23 17 13 9 8 8 9 10 11 13 16 16 19 25 27 19 14 14 16 18 20 20 20 20 17 14 12 11 12 9 0 -15 -18 -18 -18 -21 -17 -4 11 22 13 6 1 3 9 14 14 7 4 4 7 9 11 13 16 20 20 18 15 12 10 9 7 5
15 15 14 14 14 14 13 13 13 13 13 13 13 13 13 13 13 13 13 13 14 15 17 19 22 24 26 25 24 22 20 20 21 22 23 26 29 31 31 27 22 18 13 10 9 8 9 10 11 12 14 18 20 22 24 22 19 16 17 19 20 21 21 19 16 12 10 11 12 9 1 -10 -16 -20 -22 -24 -16 -2 16 16 10 3 1 3 9 15 13 6 3 2 2 2 6 11 18 22 23 20 15 12 9 8 6
Height
5818 5818 5817 5817 5816 5816 5815 5815 5814 5814 5814 5814 5813 5813 5813 5813 5813 5813 5813 5813 5813 5813 5814 5814 5814 5815 5815 5815 5815 5815 5815 5815 5816 5817 5817 5818 5818 5818 5818 5818 5819 5820 5821 5820 5821 5821 5822 5823 5823 5824 5825 5825 5826 5827 5828 5829 5830 5831 5832 5833 5834 5834 5835 5836 5837 5838 5839 5839 5840 5841 5841 5841 5842 5843 5843 5844 5845 5846 5847 5848 5848 5849 5849 5850 5851 5852 5853 5854 5854 5855 5856 5857 5857 5858 5859 5859 5860 5860 5861 5862 5862 5863 5864
5815 5814 5813 5813 5812 5812 5812 5811 5811 5811 5810 5810 5810 5809 5809 5809 5809 5809 5809 5809 5809 5809 5810 5810 5811 5811 5812 5812 5812 5812 5812 5812 5813 5813 5813 5814 5815 5815 5815 5814 5815 5816 5817 5818 5818 5818 5818 5819 5820 5821 5821 5822 5823 5824 5824 5826 5827 5828 5829 5830 5831 5832 5833 5834 5834 5835 5836 5837 5838 5838 5839 5839 5840 5841 5842 5842 5843 5844 5845 5846 5846 5846 5847 5848 5849 5850 5851 5852 5853 5854 5854 5855 5856 5857 5857 5858 5859 5859 5859 5860 5861 5862 5862
5811 5810 5810 5809 5809 5808 5808 5807 5807 5807 5806 5806 5806 5806 5806 5806 5805 5805 5805 5805 5805 5806 5806 5807 5807 5808 5808 5808 5808 5809 5809 5809 5809 5810 5810 5810 5811 5811 5812 5812 5813 5813 5813 5814 5815 5815 5815 5815 5816 5817 5818 5819 5819 5820 5821 5823 5824 5825 5826 5827 5828 5829 5830 5831 5832 5833 5834 5834 5835 5836 5836 5837 5838 5839 5840 5841 5842 5842 5843 5844 5845 5846 5845 5846 5847 5848 5849 5850 5851 5852 5853 5853 5854 5855 5856 5856 5857 5858 5858 5859 5859 5860 5861
5808 5807 5806 5805 5805 5804 5804 5804 5803 5803 5803 5802 5802 5802 5802 5802 5802 5802 5801 5801 5802 5802 5802 5803 5803 5804 5804 5804 5804 5805 5805 5806 5806 5807 5807 5807 5807 5808 5808 5809 5809 5810 5810 5810 5811 5812 5813 5812 5812 5813 5814 5815 5816 5817 5818 5819 5821 5822 5823 5824 5825 5826 5827 5828 5829 5830 5831 5832 5832 5833 5834 5835 5835 5837 5839 5839 5840 5840 5841 5842 5843 5844 5844 5844 5845 5846 5847 5848 5849 5850 5851 5852 5852 5853 5854 5855 5855 5856 5857 5857 5858 5859 5859
5804 5803 5802 5801 5801 5800 5800 5799 5799 5799 5798 5798 5798 5798 5798 5798 5798 5798 5798 5798 5798 5798 5798 5799 5799 5800 5800 5800 5801 5801 5802 5802 5803 5803 5804 5804 5804 5804 5805 5805 5806 5806 5807 5807 5807 5807 5808 5809 5809 5809 5811 5812 5813 5814 5815 5816 5817 5819 5820 5821 5822 5823 5824 5825 5826 5827 5828 5829 5829 5830 5831 5832 5833 5834 5834 5836 5838 5839 5840 5839 5841 5843 5843 5842 5843 5844 5845 5846 5847 5848 5849 5850 5851 5852 5852 5853 5854 5854 5855 5856 5856 5857 5858
5799 5799 5798 5797 5797 5796 5795 5795 5794 5794 5794 5794 5794 5794 5794 5794 5794 5794 5794 5794 5794 5794 5794 5795 5795 5796 5796 5796 5797 5797 5798 5798 5799 5800 5800 5801 5801 5801 5801 5802 5802 5802 5803 5804 5804 5805 5805 5806 5806 5806 5808 5809 5809 5810 5811 5813 5814 5815 5817 5818 5819 5820 5821 5822 5823 5824 5825 5826 5827 5828 5829 5830 5830 5831 5832 5833 5835 5836 5837 5837 5838 5839 5841 5841 5841 5842 5843 5844 5845 5846 5847 5848 5849 5850 5851 5851 5852 5853 5854 5854 5855 5856 5856
5794 5794 5793 5793 5792 5791 5791 5790 5790 5790 5789 5789 5789 5789 5789 5789 5789 5789 5789 5789 5789 5790 5790 5791 5791 5792 5792 5792 5792 5793 5794 5794 5795 5796 5796 5797 5797 5798 5798 5798 5798 5799 5799 5800 5801 5802 5802 5802 5803 5804 5804 5805 5806 5807 5808 5809 5811 5812 5814 5815 5816 5817 5818 5819 5820 5821 5822 5823 5824 5825 5826 5827 5828 5829 5829 5830 5832 5834 5834 5835 5836 5837 5839 5839 5839 5839 5841 5842 5843 5844 5845 5846 5847 5848 5849 5849 5850 5851 5852 5853 5853 5854 5855
5789 5788 5788 5787 5787 5787 5786 5786 5785 5785 5785 5784 5784 5784 5784 5784 5784 5784 5784 5785 5785 5786 5786 5787 5787 5788 5788 5788 5788 5789 5789 5790 5791 5791 5792 5793 5793 5794 5794 5794 5795 5795 5796 5797 5798 5798 5799 5799 5799 5800 5801 5802 5803 5804 5805 5806 5807 5809 5810 5812 5813 5814 5815 5816 5817 5819 5819 5820 5821 5822 5824 5824 5825 5826 5827 5828 5829 5830 5831 5833 5834 5834 5835 5837 5838 5838 5839 5840 5841 5842 5843 5844 5845 5846 5847 5848 5849 5849 5850 5851 5852 5852 5853
5783 5782 5782 5782 5782 5781 5781 5781 5780 5780 5780 5780 5780 5780 5780 5780 5780 5779 5780 5780 5781 5781 5782 5782 5783 5783 5783 5783 5784 5784 5785 5785 5786 5787 5788 5788 5789 5789 5790 5790 5791 5792 5792 5793 5794 5795 5796 5796 5796 5797 5798 5799 5800 5800 5801 5803 5804 5806 5807 5809 5810 5811 5812 5813 5814 5815 5817 5818 5819 5820 5821 5823 5824 5823 5824 5825 5826 5828 5829 5830 5832 5833 5833 5834 5836 5837 5836 5838 5839 5840 5841 5842 5843 5844 5845 5846 5847 5847 5848 5849 5850 5851 5851
5777 5777 5776 5776 5776 5775 5775 5775 5775 5775 5775 5775 5775 5775 5775 5775 5775 5775 5775 5776 5776 5777 5777 5778 5778 5778 5778 5778 5779 5779 5780 5781 5782 5782 5783 5784 5784 5785 5786 5786 5787 5788 5789 5789 5790 5791 5792 5793 5793 5794 5794 5795 5796 5797 5798 5799 5801 5802 5804 5805 5807 5808 5809 5810 5811 5813 5814 5815 5817 5818 5818 5819 5820 5821 5822 5823 5824 5825 5827 5828 5830 5831 5831 5831 5833 5834 5834 5835 5836 5838 5839 5839 5841 5842 5843 5844 5844 5845 5846 5847 5848 5849 5850
5771 5771 5770 5770 5769 5769 5769 5769 5769 5769 5769 5769 5769 5770 5770 5770 5770 5770 5770 5771 5771 5772 5772 5772 5772 5772 5773 5773 5774 5775 5775 5776 5777 5778 5778 5779 5779 5780 5781 5782 5783 5784 5785 5786 5787 5787 5788 5789 5790 5790 5791 5792 5793 5794 5795 5796 5797 5799 5801 5802 5804 5805 5806 5807 5809 5810 5811 5812 5814 5815 5815 5816 5817 5818 5819 5820 5821 5822 5824 5825 5828 5829 5829 5829 5830 5831 5832 5833 5834 5835 5836 5837 5839 5839 5840 5842 5843 5843 5844 5845 5846 5847 5848
5765 5764 5764 5764 5763 5763 5763 5763 5763 5763 5763 5764 5764 5764 5764 5764 5764 5764 5765 5766 5766 5766 5766 5766 5766 5767 5768 5768 5769 5770 5771 5771 5772 5773 5774 5774 5775 5776 5777 5778 5779 5780 5781 5782 5783 5784 5784 5785 5786 5787 5788 5789 5790 5791 5792 5793 5794 5795 5797 5799 5800 5802 5803 5804 5806 5807 5809 5810 5810 5811 5812 5812 5813 5815 5816 5817 5818 5819 5821 5823 5825 5826 5827 5827 5828 5829 5830 5831 5832 5833 5834 5835 5836 5837 5838 5839 5840 5841 5842 5843 5844 5845 5846
5759 5758 5757 5757 5757 5757 5756 5756 5756 5757 5757 5757 5758 5758 5759 5759 5759 5759 5760 5760 5760 5760 5760 5760 5761 5761 5762 5763 5764 5765 5766 5766 5767 5768 5769 5769 5770 5771 5772 5774 5774 5776 5777 5778 5779 5779 5780 5781 5782 5783 5784 5786 5787 5788 5788 5789 5790 5792 5794 5795 5797 5798 5800 5801 5803 5804 5806 5808 5808 5808 5809 5809 5810 5811 5813 5814 5815 5817 5819 5820 5822 5824 5824 5825 5825 5826 5827 5829 5830 5831 5832 5833 5834 5835 5836 5837 5838 5839 5840 5841 5842 5843 5844
5751 5751 5750 5750 5750 5750 5750 5750 5749 5750 5750 5751 5751 5752 5753 5753 5753 5753 5754 5754 5754 5754 5754 5754 5755 5756 5757 5758 5759 5759 5760 5761 5762 5763 5763 5764 5765 5766 5768 5769 5770 5771 5772 5774 5774 5775 5776 5777 5778 5779 5780 5782 5783 5784 5785 5786 5787 5788 5790 5791 5793 5794 5796 5798 5799 5801 5803 5804 5804 5805 5806 5806 5807 5808 5809 5811 5813 5814 5816 5817 5819 5821 5822 5823 5823 5824 5825 5827 5828 5829 5829 5831 5832 5833 5834 5835 5836 5837 5838 5839 5840 5841 5842
5744 5743 5743 5742 5742 5743 5743 5743 5743 5743 5743 5744 5744 5745 5746 5746 5747 5747 5747 5747 5747 5748 5748 5749 5749 5750 5751 5752 5753 5754 5755 5756 5756 5757 5758 5759 5760 5761 5763 5764 5765 5766 5767 5769 5769 5770 5772 5773 5774 5776 5777 5778 5779 5781 5782 5783 5784 5785 5786 5787 5789 5791 5793 5794 5796 5798 5800 5801 5802 5802 5804 5803 5804 5805 5806 5808 5809 5811 5813 5814 5816 5817 5819 5820 5821 5822 5823 5824 5825 5826 5827 5828 5829 5830 5831 5832 5833 5834 5835 5836 5838 5839 5840
5736 5736 5735 5734 5734 5735 5735 5735 5736 5736 5736 5737 5737 5738 5739 5739 5740 5740 5740 5740 5741 5741 5742 5743 5744 5744 5745 5746 5747 5748 5749 5750 5751 5751 5752 5754 5755 5756 5757 5759 5759 5761 5762 5763 5764 5766 5767 5769 5771 5772 5773 5774 5775 5776 5778 5779 5780 5781 5782 5783 5785 5787 5789 5791 5793 5794 5796 5798 5799 5799 5800 5801 5801 5802 5804 5805 5806 5808 5809 5811 5813 5814 5816 5817 5819 5820 5821 5822 5823 5824 5825 5826 5827 5828 5829 5829 5831 5832 5833 5834 5835 5836 5837
5729 5728 5727 5727 5727 5727 5727 5728 5728 5729 5729 5729 5730 5731 5732 5732 5733 5733 5733 5734 5734 5735 5736 5736 5737 5738 5739 5740 5741 5742 5743 5744 5745 5746 5747 5748 5749 5750 5752 5753 5754 5755 5757 5758 5759 5761 5763 5764 5766 5768 5769 5770 5771 5773 5774 5775 5777 5777 5778 5779 5781 5783 5785 5787 5789 5791 5793 5795 5796 5796 5796 5798 5799 5799 5800 5802 5803 5805 5806 5808 5810 5812 5814 5814 5816 5818 5819 5819 5820 5821 5822 5823 5824 5825 5826 5827 5828 5829 5830 5831 5833 5834 5835
5723 5721 5720 5719 5719 5719 5719 5720 5720 5721 5722 5722 5723 5724 5724 5725 5725 5725 5726 5727 5727 5728 5729 5730 5731 5732 5733 5734 5734 5735 5736 5738 5739 5739 5741 5742 5743 5745 5746 5748 5749 5750 5751 5753 5754 5756 5758 5759 5761 5763 5764 5766 5767 5769 5770 5772 5773 5774 5774 5776 5777 5779 5781 5783 5785 5788 5789 5791 5793 5794 5793 5794 5795 5796 5797 5799 5800 5801 5803 5805 5806 5808 5810 5811 5813 5814 5816 5817 5818 5819 5819 5820 5821 5822 5823 5824 5825 5826 5827 5829 5830 5831 5832
5717 5715 5713 5712 5712 5712 5712 5712 5713 5713 5714 5715 5716 5716 5717 5717 5717 5718 5718 5719 5720 5721 5722 5723 5724 5725 5726 5727 5728 5729 5730 5731 5732 5733 5734 5736 5737 5739 5740 5742 5743 5745 5746 5748 5749 5751 5753 5754 5756 5758 5760 5762 5763 5764 5766 5767 5769 5770 5771 5772 5774 5775 5777 5779 5782 5784 5786 5788 5789 5791 5791 5791 5792 5793 5794 5795 5797 5799 5799 5802 5804 5805 5807 5808 5810 5811 5813 5814 5815 5816 5816 5817 5818 5819 5820 5821 5822 5823 5824 5826 5827 5828 5829
5710 5708 5706 5705 5704 5704 5704 5704 5705 5705 5706 5707 5708 5709 5709 5709 5709 5709 5710 5711 5713 5714 5715 5716 5717 5718 5719 5720 5721 5723 5724 5725 5726 5727 5728 5729 5731 5732 5734 5736 5737 5739 5740 5742 5744 5746 5747 5749 5751 5753 5755 5757 5759 5760 5762 5763 5764 5766 5768 5769 5771 5773 5774 5776 5779 5782 5783 5784 5786 5788 5787 5787 5789 5791 5790 5792 5794 5796 5797 5799 5801 5802 5804 5805 5807 5808 5809 5810 5812 5814 5814 5814 5815 5816 5816 5818 5819 5820 5821 5823 5824 5825 5827
5703 5701 5699 5698 5697 5697 5697 5697 5697 5698 5699 5699 5700 5701 5701 5701 5701 5702 5702 5704 5705 5706 5707 5709 5710 5711 5712 5713 5714 5716 5717 5718 5719 5721 5722 5723 5724 5726 5728 5729 5731 5733 5735 5736 5739 5740 5742 5744 5745 5747 5749 5751 5753 5755 5757 5759 5760 5762 5764 5766 5768 5769 5771 5773 5775 5778 5779 5781 5783 5784 5784 5784 5785 5787 5788 5789 5790 5792 5794 5796 5797 5799 5800 5803 5804 5804 5806 5807 5809 5810 5811 5811 5812 5812 5813 5814 5816 5817 5818 5820 5821 5822 5824
5696 5694 5692 5690 5689 5689 5689 5689 5689 5689 5690 5691 5692 5693 5694 5693 5693 5694 5694 5695 5697 5698 5699 5701 5702 5704 5705 5706 5707 5709 5710 5711 5713 5714 5715 5717 5719 5720 5722 5723 5725 5727 5729 5730 5733 5734 5736 5738 5740 5742 5744 5746 5748 5750 5752 5754 5756 5757 5759 5761 5764 5765 5767 5768 5769 5772 5775 5777 5778 5779 5780 5780 5782 5784 5786 5786 5786 5788 5790 5792 5794 5795 5797 5799 5800 5801 5803 5804 5806 5807 5807 5808 5809 5809 5810 5811 5812 5814 5815 5817 5818 5819 5821
5688 5687 5685 5683 5682 5682 5681 5681 5681 5682 5682 5683 5684 5685 5685 5685 5685 5685 5686 5687 5689 5690 5691 5693 5694 5696 5698 5699 5700 5701 5703 5704 5706 5708 5709 5711 5712 5714 5715 5717 5719 5721 5723 5724 5726 5729 5731 5732 5734 5736 5738 5740 5742 5744 5747 5749 5751 5753 5755 5757 5759 5761 5763 5764 5765 5768 5771 5773 5774 5775 5776 5776 5778 5780 5782 5782 5783 5784 5786 5788 5790 5792 5794 5796 5797 5798 5800 5801 5802 5803 5804 5804 5805 5807 5808 5808 5809 5810 5812 5813 5815 5816 5818
5679 5678 5677 5675 5674 5674 5673 5673 5673 5674 5674 5675 5676 5677 5677 5677 5677 5678 5678 5679 5681 5682 5683 5685 5686 5688 5690 5691 5693 5694 5695 5697 5699 5701 5703 5704 5706 5707 5709 5710 5712 5714 5716 5719 5720 5723 5724 5727 5729 5731 5733 5735 5737 5739 5741 5744 5746 5748 5750 5753 5755 5757 5759 5760 5762 5764 5766 5769 5770 5771 5772 5773 5774 5776 5777 5778 5779 5781 5783 5784 5786 5789 5791 5793 5794 5795 5798 5798 5799 5799 5799 5800 5801 5803 5804 5805 5806 5807 5808 5809 5812 5813 5815
5670 5669 5668 5667 5666 5665 5665 5664 5665 5665 5666 5667 5668 5669 5668 5668 5669 5669 5670 5671 5673 5674 5675 5677 5678 5680 5682 5684 5685 5686 5688 5690 5692 5694 5696 5698 5699 5701 5703 5704 5706 5708 5710 5712 5714 5716 5719 5721 5723 5725 5727 5729 5731 5734 5736 5738 5741 5743 5745 5748 5750 5753 5754 5756 5758 5760 5762 5763 5765 5768 5769 5770 5771 5772 5773 5774 5775 5777 5779 5781 5784 5785 5787 5789 5790 5792 5794 5794 5795 5795 5794 5797 5800 5801 5802 5802 5803 5803 5804 5806 5808 5810 5812
5660 5659 5658 5657 5656 5656 5655 5655 5656 5656 5657 5658 5659 5659 5659 5659 5659 5660 5662 5663 5664 5666 5667 5669 5670 5671 5674 5675 5677 5679 5681 5683 5684 5686 5689 5691 5693 5694 5696 5698 5699 5701 5704 5706 5708 5710 5712 5715 5717 5719 5721 5724 5726 5729 5731 5733 5735 5738 5740 5743 5745 5748 5750 5752 5754 5756 5758 5759 5761 5764 5765 5766 5767 5769 5770 5771 5773 5774 5776 5778 5780 5782 5784 5785 5787 5788 5789 5791 5792 5792 5792 5794 5797 5798 5798 5799 5800 5800 5801 5802 5804 5806 5809
5650 5649 5648 5647 5647 5646 5646 5646 5646 5647 5648 5649 5650 5650 5650 5649 5650 5651 5653 5654 5656 5658 5659 5660 5662 5663 5665 5667 5669 5671 5673 5675 5677 5679 5681 5684 5686 5688 5689 5691 5693 5695 5697 5699 5702 5704 5706 5708 5711 5713 5715 5718 5721 5723 5726 5728 5730 5732 5735 5738 5740 5743 5746 5748 5750 5752 5753 5755 5757 5759 5760 5762 5764 5765 5767 5768 5770 5772 5773 5775 5776 5777 5779 5782 5784 5785 5786 5787 5788 5789 5790 5791 5793 5794 5796 5797 5797 5798 5798 5799 5801 5802 5804
5640 5640 5638 5637 5637 5637 5636 5635 5636 5636 5638 5639 5640 5640 5640 5639 5640 5642 5644 5646 5647 5649 5651 5652 5653 5655 5657 5659 5661 5663 5665 5667 5669 5671 5674 5676 5679 5681 5683 5685 5687 5689 5690 5693 5695 5698 5700 5702 5704 5707 5709 5712 5715 5718 5720 5723 5725 5727 5729 5732 5735 5738 5740 5743 5745 5748 5749 5751 5752 5754 5756 5758 5760 5762 5763 5764 5766 5768 5769 5771 5772 5774 5776 5779 5780 5782 5783 5785 5785 5785 5787 5788 5789 5792 5794 5796 5796 5795 5796 5796 5797 5799 5801
5631 5629 5628 5628 5627 5627 5626 5626 5626 5627 5628 5629 5630 5630 5629 5629 5631 5633 5635 5636 5638 5640 5642 5643 5644 5646 5649 5650 5653 5655 5657 5659 5661 5664 5666 5668 5671 5674 5676 5678 5680 5682 5684 5686 5689 5691 5694 5696 5698 5701 5703 5706 5709 5712 5714 5717 5719 5722 5724 5727 5730 5733 5735 5738 5741 5743 5745 5746 5748 5750 5752 5754 5756 5758 5759 5761 5762 5764 5765 5767 5769 5771 5773 5775 5777 5779 5780 5782 5783 5783 5784 5784 5786 5788 5790 5794 5794 5794 5793 5794 5795 5796 5798
5621 5619 5619 5618 5618 5617 5617 5617 5617 5617 5618 5619 5619 5619 5619 5619 5621 5623 5625 5626 5628 5630 5632 5634 5636 5638 5640 5642 5644 5646 5648 5650 5653 5656 5658 5660 5663 5666 5669 5671 5674 5675 5678 5680 5682 5684 5687 5690 5692 5694 5697 5700 5703 5706 5709 5711 5714 5717 5719 5722 5725 5729 5730 5733 5736 5739 5740 5742 5744 5746 5748 5749 5752 5754 5756 5757 5759 5760 5762 5764 5766 5768 5770 5771 5774 5777 5778 5778 5779 5779 5781 5781 5781 5783 5786 5790 5791 5791 5790 5791 5792 5793 5794
5611 5609 5609 5609 5608 5607 5607 5607 5608 5608 5609 5609 5609 5609 5609 5609 5611 5613 5614 5616 5618 5620 5623 5624 5627 5629 5631 5633 5635 5638 5640 5642 5645 5648 5650 5652 5655 5658 5661 5664 5666 5669 5671 5673 5675 5678 5681 5684 5686 5689 5691 5694 5697 5700 5703 5705 5708 5711 5714 5717 5720 5723 5725 5728 5730 5733 5735 5738 5740 5742 5744 5745 5748 5750 5752 5754 5755 5756 5758 5760 5762 5765 5767 5771 5778 5782 5778 5775 5774 5774 5776 5777 5778 5779 5782 5785 5787 5787 5787 5787 5789 5791 5791
5601 5600 5599 5599 5599 5598 5598 5598 5599 5599 5599 5600 5600 5600 5599 5600 5602 5603 5604 5606 5608 5610 5612 5615 5617 5620 5622 5624 5627 5629 5631 5634 5637 5640 5642 5644 5647 5650 5653 5656 5659 5662 5664 5667 5669 5672 5674 5677 5680 5682 5685 5688 5690 5693 5696 5699 5702 5705 5708 5711 5715 5718 5720 5722 5725 5727 5730 5733 5736 5738 5740 5741 5744 5746 5748 5750 5752 5753 5754 5756 5759 5761 5764 5769 5776 5781 5779 5774 5770 5769 5770 5772 5773 5774 5777 5779 5782 5783 5784 5784 5786 5788 5789
5593 5591 5590 5590 5589 5589 5588 5589 5590 5590 5589 5590 5591 5591 5591 5591 5593 5594 5594 5596 5598 5600 5602 5605 5608 5610 5613 5615 5618 5620 5622 5626 5629 5631 5634 5636 5639 5642 5645 5648 5652 5654 5657 5660 5663 5665 5668 5670 5673 5676 5678 5681 5684 5687 5690 5693 5696 5699 5702 5706 5709 5712 5714 5716 5719 5722 5726 5729 5731 5734 5735 5737 5740 5742 5744 5746 5748 5749 5751 5753 5755 5758 5761 5764 5765 5767 5771 5771 5768 5764 5764 5767 5769 5771 5773 5774 5775 5778 5780 5781 5782 5784 5787
5584 5583 5582 5581 5580 5580 5579 5580 5580 5580 5580 5581 5582 5582 5582 5583 5584 5585 5585 5587 5588 5590 5592 5595 5598 5601 5604 5606 5609 5611 5614 5617 5620 5623 5626 5629 5631 5634 5637 5640 5644 5647 5650 5653 5656 5658 5661 5664 5667 5669 5672 5675 5677 5680 5683 5687 5690 5693 5696 5700 5703 5705 5708 5711 5714 5717 5720 5724 5727 5729 5731 5733 5735 5738 5739 5741 5744 5746 5747 5749 5751 5754 5757 5759 5760 5762 5764 5766 5765 5763 5762 5764 5765 5768 5770 5772 5772 5773 5777 5778 5778 5779 5783
5576 5575 5574 5573 5572 5572 5571 5572 5572 5571 5571 5572 5573 5573 5573 5574 5575 5576 5577 5578 5579 5581 5583 5586 5588 5591 5594 5597 5600 5602 5605 5608 5611 5614 5617 5620 5623 5626 5629 5633 5636 5639 5643 5646 5649 5651 5654 5657 5660 5663 5666 5668 5671 5674 5676 5680 5684 5687 5690 5694 5697 5699 5702 5706 5709 5712 5714 5718 5721 5724 5726 5728 5731 5733 5734 5736 5739 5741 5743 5744 5747 5749 5752 5754 5757 5759 5759 5759 5758 5757 5760 5762 5764 5765 5767 5769 5770 5772 5773 5774 5775 5775 5777
5569 5568 5567 5566 5565 5564 5564 5564 5563 5563 5563 5564 5564 5564 5564 5565 5567 5568 5569 5570 5571 5572 5574 5576 5579 5582 5585 5588 5591 5594 5596 5599 5602 5605 5609 5612 5615 5618 5621 5624 5628 5631 5635 5638 5641 5644 5647 5650 5654 5656 5659 5662 5664 5667 5670 5674 5677 5680 5684 5688 5690 5693 5696 5699 5703 5706 5709 5712 5715 5718 5720 5723 5725 5727 5729 5731 5733 5735 5738 5740 5742 5744 5747 5750 5752 5754 5755 5753 5752 5753 5755 5758 5761 5763 5764 5765 5767 5769 5770 5771 5772 5773 5774
5562 5561 5560 5559 5558 5557 5556 5556 5556 5555 5555 5555 5555 5555 5556 5557 5558 5559 5561 5562 5563 5564 5565 5567 5570 5573 5576 5579 5582 5584 5587 5589 5593 5597 5600 5603 5606 5609 5613 5616 5619 5623 5627 5630 5633 5637 5640 5644 5646 5649 5653 5655 5658 5661 5664 5667 5670 5674 5678 5681 5684 5687 5690 5694 5696 5700 5704 5707 5710 5712 5714 5717 5719 5721 5723 5725 5727 5730 5733 5736 5738 5740 5742 5744 5747 5749 5749 5749 5749 5750 5751 5754 5756 5759 5760 5762 5764 5766 5767 5769 5770 5771 5771
5556 5554 5553 5552 5551 5550 5549 5549 5549 5548 5548 5548 5548 5548 5548 5549 5550 5551 5553 5554 5555 5556 5557 5559 5562 5564 5566 5569 5573 5575 5578 5581 5584 5588 5591 5594 5598 5602 5605 5608 5611 5615 5619 5622 5625 5629 5633 5636 5639 5642 5646 5649 5652 5654 5658 5661 5664 5667 5671 5675 5679 5681 5684 5687 5690 5694 5697 5700 5704 5708 5709 5711 5713 5715 5717 5719 5722 5724 5728 5730 5733 5735 5737 5739 5741 5743 5743 5743 5744 5745 5747 5749 5752 5754 5756 5758 5760 5763 5764 5766 5768 5769 5769
5549 5548 5547 5545 5544 5544 5543 5542 5542 5542 5541 5541 5540 5540 5540 5541 5542 5543 5545 5546 5547 5548 5549 5552 5554 5556 5558 5561 5564 5566 5569 5572 5576 5579 5582 5585 5590 5594 5596 5599 5602 5606 5610 5614 5618 5622 5626 5629 5632 5635 5639 5642 5645 5648 5651 5655 5658 5660 5664 5668 5672 5675 5678 5681 5684 5687 5690 5694 5699 5702 5704 5705 5708 5710 5712 5714 5717 5719 5721 5724 5727 5730 5732 5734 5736 5738 5739 5739 5739 5740 5742 5744 5747 5749 5751 5755 5758 5759 5761 5763 5765 5766 5767
5543 5542 5540 5539 5538 5537 5536 5536 5535 5535 5534 5534 5533 5533 5533 5533 5534 5535 5537 5538 5539 5540 5542 5544 5547 5549 5551 5554 5555 5558 5560 5563 5567 5570 5573 5577 5581 5585 5587 5590 5594 5598 5602 5605 5610 5614 5618 5621 5624 5628 5632 5635 5638 5641 5644 5649 5652 5654 5658 5662 5665 5669 5672 5674 5677 5680 5683 5688 5692 5695 5697 5699 5702 5705 5707 5709 5712 5714 5716 5719 5722 5724 5727 5729 5731 5733 5734 5735 5736 5737 5739 5741 5743 5745 5748 5752 5754 5756 5758 5760 5762 5764 5765
5537 5536 5535 5534 5532 5531 5530 5530 5529 5529 5528 5527 5526 5526 5525 5526 5527 5528 5529 5530 5532 5533 5534 5537 5539 5541 5544 5546 5548 5549 5551 5554 5558 5561 5564 5569 5572 5575 5578 5582 5586 5590 5593 5597 5602 5606 5609 5613 5617 5620 5624 5627 5631 5634 5638 5641 5644 5647 5650 5654 5659 5662 5665 5668 5670 5674 5677 5681 5685 5689 5692 5694 5697 5699 5703 5705 5707 5709 5711 5714 5717 5719 5722 5724 5726 5728 5730 5732 5733 5734 5736 5738 5740 5742 5745 5748 5751 5753 5755 5757 5759 5761 5762
5531 5530 5529 5528 5526 5525 5524 5524 5523 5522 5522 5521 5520 5519 5519 5519 5520 5520 5521 5523 5524 5526 5527 5529 5532 5534 5536 5538 5540 5542 5544 5546 5549 5553 5556 5560 5564 5567 5569 5574 5578 5581 5585 5589 5594 5598 5601 5605 5609 5612 5616 5619 5624 5628 5631 5633 5637 5640 5644 5647 5651 5655 5659 5662 5664 5667 5671 5675 5679 5682 5686 5689 5692 5695 5698 5700 5703 5705 5707 5709 5712 5714 5717 5720 5722 5724 5726 5728 5729 5731 5733 5735 5737 5739 5742 5745 5747 5750 5752 5754 5757 5759 5759
5526 5524 5523 5522 5521 5519 5519 5518 5517 5516 5516 5515 5514 5513 5513 5513 5513 5513 5514 5516 5517 5519 5520 5522 5524 5526 5529 5531 5534 5535 5536 5538 5540 5544 5548 5551 5555 5558 5562 5566 5570 5573 5577 5581 5585 5589 5593 5597 5601 5604 5608 5612 5616 5620 5622 5625 5629 5634 5637 5640 5644 5648 5652 5655 5658 5660 5664 5669 5673 5676 5680 5684 5687 5690 5693 5695 5698 5701 5703 5705 5708 5710 5713 5715 5718 5720 5722 5724 5726 5727 5729 5732 5734 5737 5739 5742 5744 5747 5749 5752 5754 5756 5757
5520 5519 5518 5516 5515 5514 5513 5512 5511 5510 5510 5509 5508 5507 5507 5507 5507 5507 5508 5509 5510 5511 5513 5514 5517 5519 5522 5524 5526 5528 5529 5530 5533 5536 5540 5544 5547 5551 5554 5558 5562 5565 5569 5573 5577 5581 5584 5589 5593 5596 5599 5604 5608 5611 5614 5618 5622 5626 5630 5634 5637 5641 5645 5649 5651 5654 5659 5663 5667 5671 5674 5678 5681 5685 5688 5690 5693 5696 5699 5701 5703 5705 5708 5710 5713 5715 5717 5719 5721 5723 5725 5728 5730 5732 5735 5738 5741 5744 5746 5749 5752 5754 5755
5514 5513 5512 5511 5509 5509 5507 5507 5506 5505 5504 5503 5502 5502 5501 5501 5501 5501 5501 5502 5503 5504 5505 5507 5509 5512 5514 5517 5519 5520 5522 5523 5526 5529 5533 5536 5540 5543 5547 5550 5554 5557 5561 5565 5569 5573 5576 5580 5584 5587 5591 5595 5599 5603 5606 5611 5615 5619 5623 5628 5632 5635 5639 5642 5645 5649 5653 5657 5661 5665 5669 5672 5675 5679 5683 5685 5688 5691 5694 5697 5699 5701 5703 5705 5707 5710 5713 5715 5717 5719 5721 5724 5726 5728 5731 5734 5737 5739 5743 5746 5748 5749 5752
5509 5508 5507 5505 5504 5503 5502 5501 5500 5499 5498 5497 5497 5496 5496 5495 5495 5495 5495 5495 5496 5497 5499 5500 5502 5505 5507 5509 5511 5513 5514 5516 5519 5522 5526 5530 5533 5536 5539 5542 5546 5550 5554 5558 5561 5564 5568 5572 5575 5579 5583 5586 5590 5594 5599 5604 5608 5612 5617 5622 5626 5629 5632 5636 5640 5644 5648 5651 5655 5659 5664 5667 5670 5673 5677 5680 5684 5688 5692 5694 5694 5695 5697 5700 5703 5705 5708 5710 5713 5715 5717 5720 5722 5724 5727 5730 5733 5736 5739 5742 5743 5745 5748
5504 5503 5501 5500 5499 5498 5497 5496 5495 5494 5493 5492 5491 5491 5490 5490 5489 5489 5489 5489 5490 5490 5492 5493 5495 5498 5500 5502 5504 5505 5507 5509 5513 5516 5520 5523 5525 5528 5532 5535 5538 5542 5546 5550 5553 5556 5560 5563 5567 5570 5574 5578 5583 5587 5592 5597 5601 5605 5610 5615 5619 5623 5627 5630 5634 5638 5642 5646 5649 5654 5658 5661 5664 5668 5671 5675 5679 5684 5688 5690 5690 5690 5692 5695 5698 5701 5704 5706 5708 5710 5713 5716 5718 5720 5724 5726 5729 5732 5734 5737 5739 5741 5744
5499 5498 5496 5495 5494 5492 5491 5490 5489 5488 5487 5487 5486 5485 5485 5484 5484 5484 5484 5484 5484 5484 5485 5486 5488 5491 5493 5495 5497 5498 5500 5502 5506 5509 5513 5515 5518 5521 5524 5528 5531 5535 5539 5542 5545 5548 5552 5555 5558 5562 5566 5570 5575 5580 5585 5589 5594 5599 5604 5608 5613 5618 5623 5625 5628 5632 5636 5640 5644 5648 5651 5654 5658 5662 5665 5669 5674 5678 5682 5684 5685 5685 5687 5690 5693 5695 5698 5701 5703 5706 5709 5712 5715 5718 5720 5722 5725 5728 5730 5734 5736 5738 5740
5494 5493 5491 5490 5489 5487 5486 5485 5484 5483 5482 5481 5480 5480 5479 5479 5479 5478 5478 5478 5478 5478 5479 5480 5482 5484 5486 5488 5490 5491 5493 5495 5499 5502 5506 5509 5512 5515 5518 5521 5525 5529 5532 5535 5537 5540 5543 5547 5550 5554 5559 5564 5568 5573 5577 5581 5586 5591 5596 5601 5607 5612 5617 5619 5622 5625 5629 5634 5638 5641 5644 5648 5652 5655 5659 5663 5667 5671 5675 5678 5680 5682 5683 5684 5687 5690 5693 5695 5699 5702 5705 5708 5711 5713 5716 5718 5720 5723 5726 5730 5733 5735 5738
5489 5488 5486 5485 5483 5482 5480 5479 5478 5477 5476 5475 5475 5474 5474 5474 5473 5473 5472 5472 5472 5473 5473 5475 5476 5478 5479 5481 5483 5484 5486 5488 5492 5496 5500 5503 5506 5508 5511 5514 5518 5521 5524 5527 5529 5532 5535 5539 5543 5548 5552 5557 5561 5565 5569 5574 5579 5584 5588 5594 5600 5605 5609 5612 5616 5619 5623 5627 5631 5634 5638 5642 5646 5649 5653 5657 5660 5664 5668 5671 5674 5677 5678 5679 5682 5685 5688 5691 5694 5697 5700 5704 5706 5709 5712 5714 5717 5720 5723 5725 5729 5733 5736
5485 5483 5481 5480 5479 5477 5475 5474 5473 5472 5471 5470 5469 5469 5469 5468 5468 5467 5467 5466 5466 5467 5468 5469 5470 5471 5473 5474 5475 5477 5479 5481 5485 5490 5494 5496 5498 5499 5503 5506 5509 5513 5517 5520 5523 5526 5528 5532 5536 5541 5545 5549 5553 5557 5561 5566 5571 5576 5581 5587 5592 5597 5601 5605 5610 5614 5617 5620 5624 5628 5632 5636 5639 5643 5646 5650 5654 5658 5662 5665 5668 5670 5673 5675 5677 5680 5683 5686 5689 5693 5696 5699 5702 5705 5708 5710 5713 5716 5719 5722 5724 5728 5733
5480 5479 5477 5475 5474 5472 5471 5469 5468 5467 5466 5465 5464 5464 5463 5463 5462 5461 5461 5461 5461 5461 5462 5464 5464 5466 5467 5468 5469 5470 5472 5475 5479 5483 5486 5487 5489 5492 5496 5500 5505 5509 5512 5514 5517 5519 5521 5525 5530 5534 5538 5542 5546 5550 5554 5559 5563 5568 5573 5579 5584 5589 5593 5598 5603 5607 5611 5615 5619 5622 5625 5629 5633 5636 5639 5644 5648 5653 5656 5660 5662 5664 5667 5669 5672 5674 5678 5682 5685 5689 5691 5694 5697 5700 5703 5706 5709 5712 5714 5718 5722 5725 5729
5477 5475 5473 5471 5470 5468 5467 5465 5463 5462 5461 5460 5459 5459 5458 5457 5457 5456 5456 5456 5455 5456 5457 5458 5459 5460 5461 5462 5463 5464 5466 5468 5472 5475 5478 5479 5482 5486 5491 5496 5501 5503 5504 5507 5509 5512 5515 5519 5524 5528 5532 5534 5538 5542 5546 5551 5555 5560 5565 5571 5576 5580 5584 5589 5594 5600 5606 5610 5614 5617 5619 5623 5626 5630 5633 5637 5642 5647 5651 5654 5655 5657 5661 5664 5667 5670 5673 5677 5681 5684 5687 5690 5693 5696 5699 5702 5705 5708 5711 5714 5717 5721 5724
5473 5471 5469 5467 5466 5464 5463 5461 5459 5458 5457 5455 5455 5454 5453 5453 5452 5451 5451 5450 5450 5450 5451 5452 5453 5454 5455 5456 5457 5458 5459 5461 5464 5468 5470 5473 5476 5481 5485 5489 5490 5491 5493 5499 5504 5507 5510 5513 5516 5520 5523 5526 5530 5534 5539 5544 5548 5553 5557 5563 5567 5572 5576 5582 5588 5594 5599 5604 5607 5611 5614 5618 5620 5623 5627 5631 5635 5640 5644 5647 5649 5651 5655 5659 5663 5666 5669 5673 5676 5680 5683 5686 5689 5692 5695 5698 5701 5704 5707 5710 5714 5717 5719
5470 5468 5466 5464 5462 5460 5459 5457 5455 5454 5453 5452 5450 5449 5449 5448 5447 5446 5446 5445 5445 5445 5446 5446 5447 5448 5449 5450 5451 5453 5454 5455 5458 5461 5464 5466 5469 5473 5476 5479 5481 5485 5490 5497 5501 5503 5503 5505 5508 5511 5515 5519 5524 5529 5533 5537 5541 5545 5549 5554 5559 5564 5569 5574 5580 5586 5592 5596 5600 5604 5609 5612 5614 5618 5622 5625 5630 5635 5639 5642 5644 5646 5650 5654 5658 5661 5665 5669 5672 5675 5679 5682 5685 5688 5691 5694 5697 5700 5703 5707 5710 5713 5716
5466 5464 5462 5460 5458 5457 5455 5454 5452 5450 5449 5448 5447 5445 5444 5444 5443 5442 5442 5441 5440 5440 5441 5441 5442 5443 5444 5444 5445 5447 5448 5449 5452 5454 5456 5458 5461 5465 5469 5473 5478 5483 5487 5490 5492 5493 5493 5496 5501 5506 5509 5512 5517 5522 5525 5529 5533 5537 5542 5546 5551 5555 5561 5566 5572 5578 5584 5589 5593 5598 5601 5605 5608 5612 5616 5620 5624 5629 5633 5637 5639 5641 5645 5649 5654 5657 5661 5664 5668 5671 5674 5678 5681 5684 5687 5690 5694 5696 5699 5703 5706 5709 5713
5463 5461 5459 5457 5455 5453 5451 5450 5448 5447 5445 5444 5443 5442 5440 5439 5439 5438 5437 5437 5436 5436 5436 5436 5437 5437 5438 5439 5440 5441 5443 5444 5446 5448 5449 5451 5454 5458 5462 5467 5472 5475 5477 5479 5481 5483 5486 5491 5498 5502 5502 5504 5509 5514 5517 5521 5525 5530 5534 5539 5543 5547 5553 5558 5564 5570 5576 5581 5586 5590 5593 5597 5601 5606 5609 5614 5618 5622 5626 5630 5634 5636 5640 5644 5649 5653 5657 5661 5664 5668 5671 5674 5678 5681 5684 5687 5689 5693 5696 5699 5702 5705 5709
5459 5457 5455 5453 5451 5449 5448 5446 5444 5443 5442 5440 5439 5438 5437 5436 5435 5434 5433 5433 5432 5431 5431 5431 5432 5432 5432 5433 5434 5436 5437 5439 5441 5442 5443 5444 5447 5452 5456 5460 5463 5465 5469 5473 5476 5479 5484 5489 5494 5495 5493 5497 5503 5508 5510 5515 5519 5524 5528 5532 5535 5540 5545 5550 5556 5562 5567 5573 5578 5582 5584 5589 5593 5598 5602 5607 5611 5616 5620 5624 5628 5632 5636 5640 5644 5649 5653 5657 5660 5664 5667 5670 5674 5677 5680 5683 5686 5689 5692 5695 5698 5701 5705
5456 5454 5452 5449 5448 5446 5444 5442 5441 5439 5438 5437 5435 5434 5433 5432 5431 5430 5429 5429 5428 5427 5427 5427 5427 5427 5427 5428 5429 5430 5432 5434 5435 5436 5437 5439 5443 5446 5449 5453 5457 5461 5465 5468 5471 5475 5479 5483 5485 5485 5486 5493 5499 5502 5504 5509 5513 5517 5520 5524 5528 5532 5538 5543 5548 5553 5558 5564 5569 5574 5577 5581 5585 5590 5595 5600 5605 5609 5614 5619 5623 5628 5632 5636 5639 5643 5648 5652 5656 5660 5664 5667 5670 5674 5676 5679 5682 5685 5688 5691 5694 5697 5700
5452 5450 5448 5446 5444 5442 5440 5438 5437 5435 5434 5433 5431 5430 5429 5428 5427 5426 5425 5425 5424 5423 5423 5423 5422 5422 5423 5423 5424 5425 5427 5428 5429 5431 5433 5435 5437 5439 5443 5447 5451 5454 5458 5460 5464 5468 5471 5474 5476 5479 5484 5490 5493 5494 5497 5501 5505 5509 5513 5517 5521 5525 5530 5535 5539 5544 5549 5554 5560 5566 5571 5575 5579 5584 5589 5594 5599 5604 5608 5613 5618 5623 5628 5632 5636 5639 5642 5647 5651 5655 5659 5663 5667 5670 5673 5675 5678 5681 5684 5687 5690 5693 5696
5448 5446 5444 5442 5440 5438 5436 5434 5433 5431 5430 5429 5428 5426 5425 5424 5423 5422 5422 5421 5420 5419 5419 5418 5418 5418 5418 5418 5419 5420 5421 5422 5424 5426 5428 5430 5431 5434 5437 5441 5444 5447 5451 5454 5457 5461 5465 5469 5472 5476 5481 5485 5486 5488 5491 5495 5499 5503 5508 5512 5515 5519 5523 5527 5531 5535 5541 5547 5553 5559 5564 5569 5574 5579 5583 5587 5592 5597 5602 5608 5613 5618 5623 5628 5632 5635 5638 5642 5647 5651 5655 5659 5662 5666 5669 5672 5674 5677 5680 5683 5686 5689 5692